Location: Fort Wayne
(41.1310°N, 85.1290°W)
Time: 02:51:29
(UTC-04:00)

Daily predictions for brighter satellites

Satellite Brightness Start Highest point End
(mag) Time Altitude Azimuth Time Altitude Azimuth Time Altitude Azimuth
ATLAS 2AS CENTAUR R/B 4.0 03:37:58 39° N 03:37:58 39° N 03:43:12 10° NNE
CZ-2D R/B 4.4 03:44:30 10° NNE 03:46:21 20° NE 03:46:21 20° NE
Cosmos 2227 Rocket 4.3 03:53:49 21° E 03:53:49 21° E 03:56:52 10° NE
Cosmos 2344 4.0 03:57:11 58° E 03:57:11 58° E 04:04:35 10° NE
Cosmos 2297 Rocket 4.4 04:01:58 19° E 04:01:58 19° E 04:05:41 10° ENE
Resurs 1-4 Rocket 3.9 04:06:38 10° NNE 04:09:10 28° NNE 04:09:10 28° NNE
Lacrosse 5 3.6 04:27:02 30° ENE 04:27:02 30° ENE 04:29:47 10° NE
USA 215 4.4 04:22:02 10° SE 04:25:08 31° SE 04:25:08 31° SE
NOSS 3-2 (C) 4.1 04:34:46 10° NNW 04:42:16 71° NE 04:50:19 10° SE
Lacrosse 5 rocket 3.8 04:49:25 19° N 04:49:25 19° N 04:51:14 10° NNE
SL-16 R/B 4.1 04:52:16 23° NNW 04:52:16 23° NNW 04:54:30 10° NNW
ARIANE 5 R/B 4.2 04:52:44 10° N 04:54:51 24° NNW 04:54:51 24° NNW
Cosmos 1605 Rocket 3.8 04:55:32 10° N 05:01:43 87° W 05:02:13 77° S
CZ-4B R/B 4.1 04:59:03 10° NNE 05:04:15 46° E 05:07:15 24° SSE
Cosmos 2237 Rocket 2.5 04:58:37 10° NNW 05:05:44 52° SSE 05:09:55 10° SSE
Cosmos 1025 Rocket 3.9 05:05:15 48° ENE 05:05:15 48° ENE 05:08:55 10° NNE
NOSS 3-4 (A) 3.3 05:05:23 77° W 05:05:44 80° NW 05:12:19 10° NNE
NOSS 3-4 (C) 3.3 05:05:28 77° W 05:05:50 81° NW 05:12:25 10° NNE
ATLAS 5 CENTAUR R/B 2.3 05:04:00 44° NNW 05:06:10 86° ENE 05:12:40 10° SE
ADEOS II 4.2 05:02:59 10° NE 05:07:13 24° E 05:11:26 10° SSE
Cosmos 2112 Rocket 4.1 05:04:18 10° NNW 05:09:36 73° ENE 05:14:50 10° SSE
Meteor 2-4 Rocket 4.5 05:07:51 20° SSE 05:11:47 53° E 05:17:32 10° NNE
Cosmos 1680 Rocket 3.8 05:08:36 10° NNW 05:16:33 30° SSE 05:19:09 10° SSE
Okean O Rocket 1.6 05:18:07 10° NNE 05:22:15 78° NNE 05:22:15 78° NNE
Cosmos 1606 Rocket 3.8 05:18:24 10° N 05:22:46 65° E 05:25:37 20° SSE
SL-16 R/B 2.8 05:19:03 10° NNW 05:24:40 57° ENE 05:30:14 10° SE
CZ-2D R/B 3.4 05:24:45 10° N 05:27:41 25° NW 05:27:41 25° NW
Cosmos 1726 Rocket 3.7 05:29:01 10° N 05:33:25 72° E 05:37:44 10° SSE
Meteor 1-13 Rocket 4.3 05:33:03 53° WSW 05:33:42 56° WNW 05:39:21 10° N
Cosmos 2227 Rocket 2.3 05:35:40 50° W 05:36:15 52° WNW 05:41:47 10° NNE
Cosmos 2298 Rocket 4.4 05:33:43 21° S 05:37:10 64° ESE 05:42:25 10° NNE
Cosmos 220 Rocket 4.5 05:38:13 45° NNW 05:38:13 45° NNW 05:41:35 10° N
Cosmos 2061 Rocket 4.2 05:34:05 10° N 05:40:25 74° E 05:46:47 10° SSE
Cosmos 2100 Rocket 4.0 05:34:25 10° N 05:40:41 82° E 05:47:00 10° S
Cosmos 1802 Rocket 4.3 05:35:57 10° N 05:42:06 67° E 05:48:10 10° SSE
RESURS DK-1 2.7 05:45:28 46° NW 05:45:28 46° NW 05:49:07 10° NNE
Cosmos 2297 Rocket 2.2 05:43:50 44° WSW 05:45:23 60° WNW 05:51:00 10° NNE
Cosmos 1892 Rocket 3.5 05:43:29 32° S 05:45:34 89° W 05:50:04 10° N
Cosmos 1346 Rocket 2.6 05:45:29 68° SW 05:45:53 78° W 05:49:54 10° N
Aureole 2 Rocket 3.5 05:44:38 10° N 05:47:59 43° ENE 05:51:00 10° SE
Thor Agena Rocket 3.6 05:43:03 10° SSE 05:48:21 84° ENE 05:53:40 10° NNW
IRS-1C Rocket 4.1 05:43:34 10° N 05:48:44 56° WNW 05:50:31 38° SW
PSLV R/B 3.8 05:46:44 10° NNE 05:51:04 69° ESE 05:55:19 10° S
Resurs 1-4 Rocket 3.7 05:47:35 10° NNW 05:50:15 18° NW 05:50:15 18° NW
Cosmos 2150 Rocket 4.1 05:47:14 16° S 05:51:18 74° ESE 05:56:27 10° NNE
CZ-2C R/B 3.9 05:51:40 42° SW 05:52:32 48° W 05:57:01 10° NNW
Tiangong 1 1.3 05:53:55 61° NNE 05:53:55 61° NNE 05:56:45 10° ENE
NOSS 3-2 (A) 4.4 05:47:27 10° NW 05:54:23 39° WSW 06:01:43 10° S
Cosmos 2228 3.1 05:57:17 10° N 06:01:42 78° E 06:06:04 10° S
CZ-4B DEB 4.3 05:59:23 10° N 06:04:45 57° WNW 06:09:02 16° SW
Cosmos 292 Rocket 3.8 06:00:22 10° NNW 06:05:06 53° WSW 06:09:48 10° S
Lacrosse 5 2.8 06:06:15 26° WNW 06:08:01 34° NNW 06:12:37 10° NNE
Cosmos 2098 Rocket 3.2 06:05:36 10° N 06:09:33 78° E 06:14:36 10° S
BREEZE M DEB (TANK) 3.7 06:09:00 22° NW 06:10:54 38° N 06:19:29 10° ENE
Cosmos 1000 Rocket 4.5 06:04:42 10° SSW 06:11:00 70° W 06:17:19 10° N
USA 215 4.3 06:07:17 10° S 06:12:08 22° WSW 06:12:34 22° WSW
Cosmos 2016 Rocket 3.9 06:08:32 10° N 06:14:54 82° W 06:21:09 10° S
DELTA 2 R/B (1) 3.7 06:13:35 25° WSW 06:16:52 68° S 06:22:25 10° E
Cosmos 724 4.4 06:11:44 10° NW 06:17:50 58° WSW 06:23:54 10° SSE
Cosmos 1898 Rocket 3.6 06:14:55 14° SW 06:19:22 58° WNW 06:24:37 10° NNE
Cosmos 2173 Rocket 4.0 06:14:24 10° NNW 06:20:19 53° W 06:26:14 10° SSW
SL-08 R/B 4.5 06:17:02 10° N 06:23:18 84° W 06:29:38 10° S
Meteor 1-15 Rocket 4.3 06:18:17 10° NNW 06:23:39 50° W 06:29:03 10° SSW
Meteor 1-31 Rocket 3.1 06:20:21 10° NNE 06:24:15 70° ESE 06:28:09 10° S
ADEOS Rocket 3.4 06:17:44 10° N 06:24:42 55° WNW 06:30:57 10° SW
Cosmos 2058 Rocket 3.5 06:22:53 10° NNW 06:26:54 37° W 06:30:55 10° SSW
Genesis I 4.0 06:23:03 10° SSW 06:26:56 52° ESE 06:30:50 10° NE
Cosmos 1459 Rocket 4.2 06:21:19 10° NNW 06:27:21 47° W 06:33:18 10° SSW
Okean-O 2.6 06:23:19 10° N 06:27:43 60° WNW 06:32:04 10° SSW
CENTAUR R/B 3.1 06:20:02 10° NW 06:27:56 86° WSW 06:36:18 10° SSE
Lacrosse 5 rocket 4.0 06:27:05 10° NNW 06:28:13 11° N 06:29:21 10° N
CZ-4B R/B 4.2 06:26:48 10° NNW 06:30:23 25° WNW 06:32:25 18° WSW
NOSS 2-2 (D) 3.6 06:26:28 10° SSW 06:30:31 78° ESE 06:35:12 10° NE
USA 129 1.2 06:29:14 10° SSE 06:31:09 88° ENE 06:32:54 10° NNW
Cosmos 1937 Rocket 3.5 06:26:35 10° SSW 06:31:45 62° WNW 06:37:00 10° NNE
Cosmos 2123 Rocket 3.9 06:26:44 10° S 06:32:55 84° W 06:39:08 10° N
Cosmos 1515 3.6 06:34:54 10° SSW 06:38:42 73° W 06:42:33 10° N
COSMO-SKYMED 1 3.5 06:34:59 10° SSE 06:39:12 54° ENE 06:43:27 10° N
Cosmos 1666 4.1 06:36:58 10° NW 06:39:37 18° W 06:41:53 12° SW
Feng Yun 1-1 Rocket 4.4 06:34:42 10° N 06:40:15 60° WNW 06:45:57 10° SSW
NOAA 6 4.2 06:36:18 10° NNE 06:41:31 79° ESE 06:46:42 10° S
Intercosmos 25 Rocket 4.0 06:40:11 10° N 06:43:46 67° E 06:49:03 10° SSE
CZ-4B R/B 4.3 06:40:16 10° NNW 06:44:33 25° WNW 06:48:53 10° WSW
NOSS 2-2 (C) 3.5 06:41:48 10° SW 06:45:54 74° NW 06:50:39 10° NNE
EXPRESS MD2 3.7 06:43:31 11° WNW 06:46:51 73° SSW 06:53:49 10° SE
ADEOS II 2.5 06:42:09 10° N 06:47:04 42° WNW 06:51:59 10° SW
Cosmos 2237 Rocket 3.8 06:48:09 12° WSW 06:48:09 12° WSW 06:49:28 10° WSW
NOSS 2-2 (E) 3.6 06:43:23 10° SW 06:47:30 64° NW 06:52:23 10° NNE
ATLAS 5 CENTAUR R/B 3.8 06:46:30 10° WNW 06:50:19 17° WSW 06:54:16 10° SSW
Cosmos 1340 2.9 06:48:21 10° S 06:52:07 75° E 06:55:56 10° NNE
Cosmos 2227 4.3 06:48:49 10° SSW 06:54:31 66° WNW 07:00:16 10° NNE
Cosmos 1626 Rocket 4.0 06:52:58 10° SSW 06:57:06 40° WNW 07:01:13 10° N
Radarsat Rocket 4.2 06:54:30 10° NNE 07:01:17 88° WNW 07:07:21 10° SSW
Iridium 4 Rocket 3.7 07:01:18 10° S 07:06:11 69° E 07:10:40 10° N
SL-16 R/B 3.4 07:04:16 10° NW 07:08:16 20° W 07:12:16 10° SW
NOSS 5 (C) 4.3 07:04:50 10° SSW 07:08:20 88° SE 07:11:27 10° NE
CZ-4 R/B 4.0 07:05:31 10° NE 07:08:55 27° E 07:12:23 10° SSE
Cosmos 468 4.5 07:06:36 10° NNW 07:11:50 75° WSW 07:17:02 10° SSE
